DEAVJ ELLX-EDDH

Flight info

Callsign DEAVJ
Flight time 2h 7m
Altitude 31000
Route DIK N853 ONUNE/N0274F230 N853 HMM M170 BASUM/N0278F300 Y850 PIXUR/N0277F290 Y850 MUBZI M105 RIBSO RIBSO7A
Aircraft SF50/L-SDGRWY/L

Departure

Time 2026-04-30 19:07
Airport Luxembourg-Findel International Airport (ELLX)

Arrival

Time 2026-04-30 21:14
Airport Hamburg Helmut Schmidt Airport (EDDH)
Time Latitude Longitude Altitude Speed Heading
2026-04-30 18:42 49.63075 6.21240 1227 ft 0 kts 244°
2026-04-30 19:01 49.63059 6.21207 1227 ft 10 kts 198°
2026-04-30 19:01 49.62992 6.21243 1227 ft 11 kts 157°
2026-04-30 19:02 49.62905 6.21091 1226 ft 11 kts 246°
2026-04-30 19:02 49.62842 6.20893 1230 ft 8 kts 244°
2026-04-30 19:03 49.62757 6.20693 1233 ft 19 kts 222°
2026-04-30 19:03 49.62555 6.20392 1226 ft 19 kts 229°
2026-04-30 19:04 49.62407 6.20042 1207 ft 20 kts 237°
2026-04-30 19:04 49.62268 6.19664 1185 ft 19 kts 239°
2026-04-30 19:05 49.62175 6.19563 1181 ft 0 kts 155°
2026-04-30 19:05 49.62099 6.19683 1187 ft 9 kts 73°
2026-04-30 19:06 49.62106 6.19703 1189 ft 0 kts 57°
2026-04-30 19:06 49.62165 6.19863 1199 ft 48 kts 60°
2026-04-30 19:06 49.62889 6.21690 1540 ft 137 kts 62°
2026-04-30 19:07 49.63875 6.24435 3252 ft 153 kts 66°
2026-04-30 19:07 49.64426 6.25904 3969 ft 171 kts 67°
2026-04-30 19:08 49.65860 6.29800 4748 ft 215 kts 65°
2026-04-30 19:08 49.67323 6.33165 7236 ft 176 kts 41°
2026-04-30 19:08 49.68507 6.33808 8034 ft 190 kts
2026-04-30 19:09 49.70900 6.31953 9603 ft 202 kts 322°
2026-04-30 19:09 49.71997 6.30580 10362 ft 204 kts 323°
2026-04-30 19:09 49.73112 6.29215 11036 ft 207 kts 324°
2026-04-30 19:10 49.75392 6.26377 12441 ft 211 kts 324°
2026-04-30 19:10 49.77705 6.23497 13824 ft 216 kts 324°
2026-04-30 19:11 49.78897 6.22014 14277 ft 228 kts 323°
2026-04-30 19:11 49.81505 6.18756 15319 ft 228 kts 323°
2026-04-30 19:11 49.82707 6.17251 16054 ft 222 kts 324°
2026-04-30 19:12 49.83927 6.15736 16535 ft 226 kts 324°
2026-04-30 19:12 49.85160 6.14222 17033 ft 226 kts 328°
2026-04-30 19:12 49.86580 6.13242 17508 ft 222 kts 350°
2026-04-30 19:13 49.89597 6.13028 18429 ft 219 kts
2026-04-30 19:13 49.92670 6.13009 19222 ft 222 kts
2026-04-30 19:13 49.94219 6.13022 19598 ft 223 kts
2026-04-30 19:14 49.95778 6.13029 19965 ft 224 kts
2026-04-30 19:14 49.97342 6.13038 20327 ft 226 kts
2026-04-30 19:14 49.98916 6.13044 20695 ft 227 kts
2026-04-30 19:14 50.00502 6.12811 20990 ft 228 kts
2026-04-30 19:15 50.02069 6.13270 21061 ft 236 kts 21°
2026-04-30 19:15 50.05052 6.14732 22066 ft 220 kts 22°
2026-04-30 19:15 50.06509 6.15462 22435 ft 220 kts 23°
2026-04-30 19:16 50.07964 6.16188 22815 ft 219 kts 23°
2026-04-30 19:16 50.09420 6.16913 23176 ft 219 kts 23°
2026-04-30 19:16 50.12316 6.18354 23922 ft 218 kts 22°
2026-04-30 19:17 50.13762 6.19073 24236 ft 218 kts 23°
2026-04-30 19:17 50.16646 6.20502 24871 ft 217 kts 22°
2026-04-30 19:17 50.18079 6.21212 25199 ft 216 kts 23°
2026-04-30 19:18 50.20480 6.22404 25774 ft 216 kts 22°
2026-04-30 19:18 50.22371 6.23334 26225 ft 215 kts 21°
2026-04-30 19:18 50.23871 6.23626 26547 ft 221 kts
2026-04-30 19:19 50.25412 6.23544 26878 ft 221 kts
2026-04-30 19:19 50.26946 6.23446 27228 ft 220 kts
2026-04-30 19:19 50.30004 6.23247 27897 ft 220 kts
2026-04-30 19:20 50.31528 6.23145 28232 ft 219 kts
2026-04-30 19:20 50.33052 6.23042 28557 ft 219 kts
2026-04-30 19:20 50.36089 6.22835 29201 ft 218 kts
2026-04-30 19:21 50.37585 6.22736 29516 ft 218 kts
2026-04-30 19:21 50.40605 6.22534 30145 ft 217 kts
2026-04-30 19:22 50.43619 6.22332 30694 ft 216 kts
2026-04-30 19:22 50.48142 6.22047 31299 ft 224 kts
2026-04-30 19:23 50.53057 6.21793 31304 ft 247 kts
2026-04-30 19:24 50.56590 6.21668 31301 ft 260 kts
2026-04-30 19:24 50.58419 6.21601 31301 ft 266 kts
2026-04-30 19:24 50.62200 6.21485 31303 ft 278 kts
2026-04-30 19:25 50.68132 6.21344 31301 ft 288 kts
2026-04-30 19:26 50.71784 6.23561 31307 ft 284 kts 34°
2026-04-30 19:26 50.75216 6.26793 31306 ft 290 kts 33°
2026-04-30 19:26 50.76934 6.28393 31306 ft 292 kts 33°
2026-04-30 19:27 50.80448 6.31703 31309 ft 295 kts 33°
2026-04-30 19:27 50.83997 6.35044 31306 ft 298 kts 33°
2026-04-30 19:28 50.85776 6.36720 31306 ft 298 kts 33°
2026-04-30 19:28 50.89352 6.40092 31309 ft 300 kts 33°
2026-04-30 19:29 50.92893 6.43437 31312 ft 288 kts 33°
2026-04-30 19:29 50.94610 6.45075 31301 ft 289 kts 33°
2026-04-30 19:30 50.99831 6.50015 31323 ft 294 kts 33°
2026-04-30 19:30 51.03363 6.53377 31323 ft 296 kts 33°
2026-04-30 19:31 51.06875 6.56720 31319 ft 293 kts 33°
2026-04-30 19:31 51.08623 6.58386 31337 ft 292 kts 33°
2026-04-30 19:31 51.12109 6.61713 31333 ft 292 kts 33°
2026-04-30 19:32 51.13828 6.63357 31342 ft 293 kts 33°
2026-04-30 19:32 51.15583 6.65036 31334 ft 294 kts 33°
2026-04-30 19:32 51.17338 6.66715 31348 ft 294 kts 33°
2026-04-30 19:32 51.19078 6.68384 31350 ft 290 kts 33°
2026-04-30 19:33 51.20807 6.70041 31347 ft 288 kts 33°
2026-04-30 19:33 51.22530 6.71699 31343 ft 290 kts 33°
2026-04-30 19:33 51.24263 6.73366 31347 ft 291 kts 33°
2026-04-30 19:33 51.25999 6.75037 31345 ft 293 kts 33°
2026-04-30 19:34 51.27751 6.76723 31344 ft 294 kts 33°
2026-04-30 19:34 51.29499 6.78407 31351 ft 293 kts 33°
2026-04-30 19:34 51.32966 6.81753 31330 ft 290 kts 33°
2026-04-30 19:35 51.34699 6.83430 31330 ft 289 kts 33°
2026-04-30 19:35 51.36412 6.85083 31332 ft 289 kts 33°
2026-04-30 19:35 51.38114 6.86732 31328 ft 290 kts 33°
2026-04-30 19:35 51.39844 6.88410 31326 ft 291 kts 33°
2026-04-30 19:36 51.41582 6.90093 31329 ft 292 kts 33°
2026-04-30 19:36 51.43327 6.91787 31338 ft 293 kts 33°
2026-04-30 19:36 51.46817 6.95177 31338 ft 292 kts 33°
2026-04-30 19:37 51.48551 6.96865 31339 ft 291 kts 33°
2026-04-30 19:37 51.50278 6.98549 31341 ft 290 kts 33°
2026-04-30 19:37 51.51998 7.00227 31340 ft 289 kts 33°
2026-04-30 19:37 51.53124 7.01325 31338 ft 282 kts 33°
2026-04-30 19:38 51.54764 7.02922 31330 ft 270 kts 33°
2026-04-30 19:38 51.56872 7.04985 31337 ft 269 kts 33°
2026-04-30 19:38 51.58487 7.06571 31337 ft 273 kts 33°
2026-04-30 19:38 51.59565 7.07626 31343 ft 275 kts 33°
2026-04-30 19:39 51.61193 7.09217 31341 ft 272 kts 33°
2026-04-30 19:39 51.62810 7.10804 31340 ft 270 kts 33°
2026-04-30 19:39 51.64413 7.12376 31336 ft 270 kts 33°
2026-04-30 19:39 51.66022 7.13957 31336 ft 271 kts 33°
2026-04-30 19:40 51.67614 7.15520 31344 ft 261 kts 33°
2026-04-30 19:40 51.69101 7.16979 31344 ft 239 kts 33°
2026-04-30 19:40 51.70463 7.18316 31346 ft 222 kts 33°
2026-04-30 19:40 51.71768 7.19602 31352 ft 222 kts 33°
2026-04-30 19:41 51.73116 7.20937 31352 ft 231 kts 33°
2026-04-30 19:41 51.74500 7.22304 31364 ft 235 kts 33°
2026-04-30 19:41 51.75897 7.23680 31365 ft 234 kts 33°
2026-04-30 19:41 51.77281 7.25045 31364 ft 232 kts 33°
2026-04-30 19:42 51.78639 7.26388 31364 ft 231 kts 33°
2026-04-30 19:42 51.80006 7.27741 31365 ft 230 kts 33°
2026-04-30 19:42 51.81379 7.29101 31364 ft 231 kts 34°
2026-04-30 19:42 51.82541 7.30864 31361 ft 231 kts 54°
2026-04-30 19:43 51.83217 7.33229 31368 ft 233 kts 72°
2026-04-30 19:43 51.83465 7.35828 31373 ft 235 kts 84°
2026-04-30 19:43 51.83589 7.38461 31372 ft 234 kts 83°
2026-04-30 19:44 51.83942 7.43666 31372 ft 232 kts 82°
2026-04-30 19:44 51.84110 7.46251 31370 ft 231 kts 82°
2026-04-30 19:44 51.84278 7.48827 31368 ft 231 kts 82°
2026-04-30 19:44 51.84445 7.51414 31367 ft 232 kts 82°
2026-04-30 19:45 51.84614 7.54015 31368 ft 233 kts 82°
2026-04-30 19:45 51.84783 7.56627 31370 ft 234 kts 82°
2026-04-30 19:45 51.84951 7.59252 31374 ft 235 kts 82°
2026-04-30 19:45 51.85120 7.61880 31383 ft 235 kts 82°
2026-04-30 19:46 51.85287 7.64504 31383 ft 233 kts 82°
2026-04-30 19:46 51.85454 7.67106 31381 ft 232 kts 82°
2026-04-30 19:46 51.85757 7.69621 31376 ft 230 kts 69°
2026-04-30 19:46 51.86470 7.71919 31377 ft 229 kts 56°
2026-04-30 19:47 51.87512 7.73856 31281 ft 227 kts 45°
2026-04-30 19:47 51.88258 7.75078 30635 ft 236 kts 46°
2026-04-30 19:47 51.89887 7.77824 28664 ft 270 kts 47°
2026-04-30 19:47 51.91206 7.80009 27788 ft 268 kts 46°
2026-04-30 19:48 51.92496 7.82122 27041 ft 261 kts 46°
2026-04-30 19:48 51.93794 7.84164 26191 ft 261 kts 44°
2026-04-30 19:48 51.95106 7.86191 25328 ft 255 kts 46°
2026-04-30 19:48 51.96202 7.88247 25215 ft 223 kts 52°
2026-04-30 19:49 51.97138 7.90047 25292 ft 196 kts 49°
2026-04-30 19:49 51.99021 7.93168 25384 ft 206 kts 47°
2026-04-30 19:49 52.00028 7.94862 25393 ft 208 kts 47°
2026-04-30 19:50 52.01015 7.96512 25391 ft 204 kts 47°
2026-04-30 19:50 52.01992 7.98156 25382 ft 202 kts 47°
2026-04-30 19:50 52.02975 7.99806 25380 ft 204 kts 47°
2026-04-30 19:50 52.03965 8.01473 25389 ft 206 kts 47°
2026-04-30 19:51 52.04964 8.03153 25390 ft 207 kts 47°
2026-04-30 19:51 52.05964 8.04838 25392 ft 207 kts 47°
2026-04-30 19:51 52.06963 8.06521 25395 ft 206 kts 47°
2026-04-30 19:51 52.07956 8.08192 25393 ft 205 kts 47°
2026-04-30 19:52 52.08943 8.09858 25392 ft 204 kts 47°
2026-04-30 19:52 52.09927 8.11516 25390 ft 203 kts 47°
2026-04-30 19:52 52.10907 8.13173 25389 ft 203 kts 47°
2026-04-30 19:52 52.11885 8.14824 25389 ft 203 kts 47°
2026-04-30 19:53 52.12869 8.16488 25386 ft 204 kts 47°
2026-04-30 19:53 52.13854 8.18157 25387 ft 205 kts 47°
2026-04-30 19:53 52.14844 8.19833 25388 ft 206 kts 47°
2026-04-30 19:53 52.15835 8.21511 25389 ft 206 kts 47°
2026-04-30 19:54 52.16833 8.23204 25387 ft 207 kts 47°
2026-04-30 19:54 52.17887 8.24787 25385 ft 208 kts 35°
2026-04-30 19:54 52.19158 8.25909 25387 ft 208 kts 31°
2026-04-30 19:54 52.20404 8.27050 25387 ft 208 kts 32°
2026-04-30 19:55 52.21685 8.28219 25389 ft 208 kts 31°
2026-04-30 19:55 52.22956 8.29362 25388 ft 208 kts 31°
2026-04-30 19:55 52.24207 8.30488 25389 ft 208 kts 31°
2026-04-30 19:55 52.25488 8.31640 25388 ft 207 kts 31°
2026-04-30 19:56 52.26747 8.32778 25393 ft 206 kts 31°
2026-04-30 19:56 52.28005 8.33910 25393 ft 206 kts 31°
2026-04-30 19:56 52.29257 8.35042 25392 ft 206 kts 31°
2026-04-30 19:56 52.30493 8.36158 25393 ft 206 kts 31°
2026-04-30 19:57 52.31746 8.37292 25391 ft 206 kts 31°
2026-04-30 19:57 52.32998 8.38426 25387 ft 206 kts 31°
2026-04-30 19:57 52.34247 8.39555 25394 ft 205 kts 31°
2026-04-30 19:57 52.35500 8.40686 24876 ft 210 kts 31°
2026-04-30 19:58 52.36847 8.41914 23665 ft 232 kts 31°
2026-04-30 19:58 52.38333 8.43270 22033 ft 257 kts 32°
2026-04-30 19:58 52.39891 8.44672 21409 ft 242 kts 32°
2026-04-30 19:58 52.41262 8.45902 21392 ft 209 kts 32°
2026-04-30 19:59 52.42461 8.46992 21387 ft 187 kts 33°
2026-04-30 19:59 52.43563 8.47996 21391 ft 177 kts 33°
2026-04-30 19:59 52.45791 8.50033 21402 ft 191 kts 32°
2026-04-30 20:00 52.46950 8.51087 21409 ft 190 kts 32°
2026-04-30 20:00 52.48098 8.52129 21408 ft 188 kts 32°
2026-04-30 20:00 52.49234 8.53167 21406 ft 186 kts 32°
2026-04-30 20:00 52.50364 8.54197 21404 ft 186 kts 32°
2026-04-30 20:01 52.52635 8.56275 21405 ft 188 kts 32°
2026-04-30 20:01 52.53778 8.57322 21406 ft 188 kts 32°
2026-04-30 20:01 52.54925 8.58370 21407 ft 189 kts 32°
2026-04-30 20:02 52.57217 8.60470 21408 ft 190 kts 32°
2026-04-30 20:02 52.58373 8.61530 21409 ft 190 kts 32°
2026-04-30 20:03 52.60672 8.63639 21409 ft 188 kts 32°
2026-04-30 20:03 52.61816 8.64692 21408 ft 188 kts 32°
2026-04-30 20:03 52.62958 8.65738 21407 ft 187 kts 32°
2026-04-30 20:03 52.64095 8.66785 21407 ft 187 kts 32°
2026-04-30 20:04 52.65231 8.67827 21411 ft 187 kts 32°
2026-04-30 20:04 52.66354 8.68862 21411 ft 186 kts 32°
2026-04-30 20:04 52.67485 8.69901 21410 ft 186 kts 32°
2026-04-30 20:05 52.69751 8.71991 21402 ft 187 kts 32°
2026-04-30 20:05 52.70894 8.73045 21404 ft 189 kts 32°
2026-04-30 20:05 52.73201 8.75175 21409 ft 191 kts 32°
2026-04-30 20:06 52.74357 8.76242 21412 ft 190 kts 32°
2026-04-30 20:06 52.75509 8.77310 21412 ft 190 kts 32°
2026-04-30 20:06 52.76730 8.78136 21411 ft 191 kts 20°
2026-04-30 20:06 52.77997 8.78775 21412 ft 190 kts 22°
2026-04-30 20:07 52.79256 8.79450 21415 ft 190 kts 21°
2026-04-30 20:07 52.80516 8.80112 21416 ft 190 kts 21°
2026-04-30 20:07 52.83035 8.81427 21417 ft 190 kts 21°
2026-04-30 20:08 52.84285 8.82083 21415 ft 190 kts 21°
2026-04-30 20:08 52.85542 8.82738 21417 ft 190 kts 21°
2026-04-30 20:08 52.86803 8.83401 21418 ft 190 kts 21°
2026-04-30 20:08 52.88066 8.84062 21419 ft 190 kts 21°
2026-04-30 20:09 52.89340 8.84729 21422 ft 190 kts 21°
2026-04-30 20:09 52.90598 8.85388 21423 ft 190 kts 21°
2026-04-30 20:09 52.93113 8.86705 21420 ft 190 kts 21°
2026-04-30 20:10 52.95637 8.88031 21420 ft 190 kts 21°
2026-04-30 20:10 52.96900 8.88696 21420 ft 190 kts 21°
2026-04-30 20:10 52.98150 8.89352 21420 ft 190 kts 21°
2026-04-30 20:11 53.00671 8.90679 21422 ft 190 kts 21°
2026-04-30 20:11 53.01930 8.91344 21422 ft 190 kts 21°
2026-04-30 20:11 53.03190 8.92009 21422 ft 190 kts 21°
2026-04-30 20:12 53.05708 8.93340 21420 ft 190 kts 21°
2026-04-30 20:12 53.06967 8.94004 21420 ft 190 kts 21°
2026-04-30 20:12 53.08225 8.94672 21420 ft 190 kts 21°
2026-04-30 20:13 53.09486 8.95338 21420 ft 191 kts 21°
2026-04-30 20:13 53.10813 8.96050 21424 ft 212 kts 21°
2026-04-30 20:13 53.12266 8.96825 21434 ft 227 kts 21°
2026-04-30 20:13 53.13799 8.97634 21434 ft 233 kts 20°
2026-04-30 20:14 53.15347 8.98451 21433 ft 233 kts 20°
2026-04-30 20:14 53.16895 8.99271 21433 ft 233 kts 21°
2026-04-30 20:14 53.18437 9.00093 21432 ft 233 kts 21°
2026-04-30 20:14 53.19986 9.00914 21431 ft 233 kts 20°
2026-04-30 20:15 53.21530 9.01737 21429 ft 233 kts 21°
2026-04-30 20:15 53.23075 9.02558 21428 ft 233 kts 20°
2026-04-30 20:15 53.24618 9.03381 21427 ft 233 kts 21°
2026-04-30 20:15 53.26160 9.04206 21426 ft 233 kts 21°
2026-04-30 20:16 53.27706 9.05030 21429 ft 233 kts 21°
2026-04-30 20:16 53.29227 9.05845 21429 ft 233 kts 21°
2026-04-30 20:16 53.30769 9.06669 21428 ft 233 kts 21°
2026-04-30 20:16 53.32314 9.07496 21428 ft 233 kts 21°
2026-04-30 20:17 53.33858 9.08325 21427 ft 233 kts 21°
2026-04-30 20:17 53.35400 9.09152 21426 ft 233 kts 21°
2026-04-30 20:17 53.36943 9.09977 21425 ft 233 kts 21°
2026-04-30 20:17 53.38488 9.10805 21426 ft 233 kts 21°
2026-04-30 20:18 53.40055 9.11651 21285 ft 245 kts 20°
2026-04-30 20:18 53.41730 9.12555 21047 ft 257 kts 20°
2026-04-30 20:18 53.43441 9.13469 20804 ft 258 kts 20°
2026-04-30 20:18 53.45156 9.14392 20442 ft 259 kts 20°
2026-04-30 20:19 53.46859 9.15310 20078 ft 255 kts 21°
2026-04-30 20:19 53.47976 9.15911 19837 ft 253 kts 21°
2026-04-30 20:19 53.50208 9.17117 19355 ft 251 kts 21°
2026-04-30 20:19 53.51869 9.18017 19002 ft 251 kts 21°
2026-04-30 20:20 53.53528 9.18916 18640 ft 251 kts 21°
2026-04-30 20:20 53.55187 9.19811 18239 ft 250 kts 21°
2026-04-30 20:20 53.56844 9.20712 17762 ft 251 kts 21°
2026-04-30 20:20 53.58496 9.21606 17246 ft 247 kts 22°
2026-04-30 20:21 53.60123 9.22487 16738 ft 244 kts 22°
2026-04-30 20:21 53.61713 9.23353 16242 ft 242 kts 22°
2026-04-30 20:21 53.63333 9.24233 15742 ft 241 kts 22°
2026-04-30 20:21 53.64902 9.25083 15430 ft 226 kts 22°
2026-04-30 20:22 53.66311 9.25837 15421 ft 199 kts 22°
2026-04-30 20:22 53.67553 9.26513 15415 ft 178 kts 23°
2026-04-30 20:22 53.68685 9.27132 15416 ft 171 kts 24°
2026-04-30 20:22 53.69832 9.27766 15418 ft 176 kts 24°
2026-04-30 20:23 53.71015 9.28414 15425 ft 180 kts 23°
2026-04-30 20:23 53.72208 9.29063 15429 ft 180 kts 23°
2026-04-30 20:23 53.73399 9.29712 15429 ft 180 kts 23°
2026-04-30 20:23 53.74586 9.30359 15428 ft 179 kts 23°
2026-04-30 20:24 53.75768 9.31007 15425 ft 179 kts 23°
2026-04-30 20:24 53.76553 9.31434 15425 ft 178 kts 23°
2026-04-30 20:24 53.77732 9.32082 15424 ft 178 kts 23°
2026-04-30 20:24 53.78926 9.32734 15424 ft 178 kts 23°
2026-04-30 20:25 53.81253 9.34014 15424 ft 174 kts 31°
2026-04-30 20:25 53.82052 9.35446 15424 ft 169 kts 66°
2026-04-30 20:26 53.81704 9.39190 15427 ft 178 kts 129°
2026-04-30 20:26 53.79256 9.39710 15428 ft 202 kts 202°
2026-04-30 20:26 53.78038 9.38499 15432 ft 203 kts 206°
2026-04-30 20:27 53.75606 9.36114 15431 ft 202 kts 205°
2026-04-30 20:27 53.73104 9.33692 14480 ft 217 kts 205°
2026-04-30 20:28 53.70940 9.30852 14410 ft 197 kts 246°
2026-04-30 20:28 53.71748 9.26724 14425 ft 197 kts 335°
2026-04-30 20:29 53.74131 9.27090 14437 ft 173 kts 36°
2026-04-30 20:30 53.77233 9.30096 14431 ft 172 kts 35°
2026-04-30 20:30 53.80338 9.33108 14431 ft 171 kts 35°
2026-04-30 20:31 53.82231 9.37508 14425 ft 167 kts 99°
2026-04-30 20:32 53.79275 9.39736 14432 ft 198 kts 202°
2026-04-30 20:32 53.76832 9.37308 13463 ft 213 kts 205°
2026-04-30 20:33 53.75620 9.36124 13422 ft 191 kts 205°
2026-04-30 20:33 53.73342 9.33926 13416 ft 194 kts 205°
2026-04-30 20:33 53.72162 9.32777 13426 ft 197 kts 205°
2026-04-30 20:34 53.70793 9.29074 13416 ft 204 kts 281°
2026-04-30 20:34 53.72653 9.26245 13418 ft 183 kts
2026-04-30 20:35 53.73810 9.26768 13422 ft 172 kts 34°
2026-04-30 20:35 53.74842 9.27793 13427 ft 172 kts 35°
2026-04-30 20:35 53.76924 9.29799 13429 ft 172 kts 35°
2026-04-30 20:36 53.77967 9.30807 13431 ft 173 kts 35°
2026-04-30 20:36 53.79007 9.31819 13432 ft 173 kts 35°
2026-04-30 20:36 53.81090 9.33841 13432 ft 173 kts 35°
2026-04-30 20:37 53.81978 9.35118 13423 ft 166 kts 62°
2026-04-30 20:37 53.82265 9.36966 13427 ft 164 kts 90°
2026-04-30 20:37 53.81906 9.38793 13429 ft 168 kts 121°
2026-04-30 20:37 53.80966 9.40010 13428 ft 178 kts 154°
2026-04-30 20:38 53.79705 9.40052 13424 ft 191 kts 192°
2026-04-30 20:38 53.78515 9.38978 13432 ft 195 kts 206°
2026-04-30 20:38 53.77352 9.37812 13434 ft 195 kts 205°
2026-04-30 20:39 53.74995 9.35527 13431 ft 195 kts 205°
2026-04-30 20:39 53.73817 9.34385 13431 ft 195 kts 205°
2026-04-30 20:39 53.72652 9.33250 13431 ft 196 kts 205°
2026-04-30 20:40 53.70785 9.30079 13416 ft 204 kts 262°
2026-04-30 20:40 53.71072 9.27795 13414 ft 200 kts 306°
2026-04-30 20:40 53.72115 9.26408 13387 ft 188 kts 345°
2026-04-30 20:41 53.74485 9.27421 12428 ft 171 kts 36°
2026-04-30 20:41 53.75476 9.28392 12413 ft 161 kts 34°
2026-04-30 20:41 53.76461 9.29350 12413 ft 167 kts 35°
2026-04-30 20:41 53.77484 9.30343 12420 ft 171 kts 34°
2026-04-30 20:42 53.78522 9.31349 12422 ft 171 kts 34°
2026-04-30 20:42 53.79557 9.32351 12425 ft 171 kts 34°
2026-04-30 20:42 53.81602 9.34390 12421 ft 167 kts 42°
2026-04-30 20:43 53.82192 9.35999 12417 ft 162 kts 76°
2026-04-30 20:43 53.82173 9.37881 12418 ft 163 kts 105°
2026-04-30 20:43 53.81534 9.39470 12419 ft 169 kts 136°
2026-04-30 20:44 53.79214 9.39671 12421 ft 189 kts 204°
2026-04-30 20:44 53.78081 9.38527 12426 ft 190 kts 206°
2026-04-30 20:44 53.75776 9.36288 12424 ft 192 kts 205°
2026-04-30 20:45 53.73460 9.34038 12430 ft 192 kts 205°
2026-04-30 20:45 53.72300 9.32912 12429 ft 192 kts 205°
2026-04-30 20:45 53.71201 9.31646 12424 ft 193 kts 220°
2026-04-30 20:46 53.68041 9.32341 11775 ft 179 kts 134°
2026-04-30 20:46 53.67056 9.33845 10726 ft 202 kts 134°
2026-04-30 20:47 53.64882 9.37263 8608 ft 214 kts 134°
2026-04-30 20:47 53.63806 9.38963 7740 ft 211 kts 134°
2026-04-30 20:48 53.61684 9.42268 6062 ft 204 kts 134°
2026-04-30 20:48 53.60658 9.43888 5211 ft 201 kts 134°
2026-04-30 20:48 53.59653 9.45514 4345 ft 200 kts 135°
2026-04-30 20:48 53.58692 9.47116 3988 ft 183 kts 134°
2026-04-30 20:49 53.57856 9.48525 3974 ft 161 kts 134°
2026-04-30 20:49 53.57088 9.49823 3977 ft 153 kts 134°
2026-04-30 20:49 53.56354 9.51062 3984 ft 146 kts 134°
2026-04-30 20:50 53.55187 9.53206 3972 ft 108 kts 107°
2026-04-30 20:50 53.55404 9.54331 3984 ft 109 kts 55°
2026-04-30 20:50 53.56075 9.55192 4008 ft 135 kts 32°
2026-04-30 20:50 53.56936 9.56014 4004 ft 146 kts 34°
2026-04-30 20:51 53.57808 9.56881 4000 ft 146 kts 34°
2026-04-30 20:51 53.59558 9.58620 4000 ft 146 kts 34°
2026-04-30 20:51 53.60433 9.59489 4000 ft 146 kts 34°
2026-04-30 20:52 53.61310 9.60359 3997 ft 146 kts 33°
2026-04-30 20:52 53.62114 9.61360 3987 ft 142 kts 58°
2026-04-30 20:52 53.61369 9.63879 3996 ft 140 kts 146°
2026-04-30 20:53 53.60543 9.64808 4008 ft 150 kts 144°
2026-04-30 20:53 53.59605 9.65728 4000 ft 162 kts 162°
2026-04-30 20:53 53.58505 9.65287 3986 ft 175 kts 217°
2026-04-30 20:54 53.56990 9.62123 3996 ft 164 kts 229°
2026-04-30 20:54 53.56304 9.60647 3986 ft 157 kts 229°
2026-04-30 20:54 53.55640 9.59224 3984 ft 153 kts 229°
2026-04-30 20:55 53.54224 9.56203 4004 ft 173 kts 229°
2026-04-30 20:55 53.53462 9.54581 4000 ft 181 kts 229°
2026-04-30 20:55 53.52677 9.52913 4000 ft 181 kts 229°
2026-04-30 20:56 53.50718 9.50751 3976 ft 174 kts 169°
2026-04-30 20:56 53.49773 9.51866 3975 ft 171 kts 119°
2026-04-30 20:56 53.50642 9.54932 3983 ft 162 kts 17°
2026-04-30 20:57 53.51713 9.55247 3984 ft 153 kts 13°
2026-04-30 20:57 53.52750 9.55582 3985 ft 151 kts 14°
2026-04-30 20:57 53.53778 9.55911 3983 ft 150 kts 14°
2026-04-30 20:58 53.55566 9.57256 3985 ft 143 kts 56°
2026-04-30 20:58 53.56190 9.58600 3989 ft 144 kts 53°
2026-04-30 20:58 53.56817 9.59893 3991 ft 145 kts 54°
2026-04-30 20:58 53.57456 9.61211 3993 ft 145 kts 54°
2026-04-30 20:59 53.59129 9.62579 3985 ft 154 kts 335°
2026-04-30 20:59 53.59682 9.61129 3919 ft 147 kts 274°
2026-04-30 21:00 53.58429 9.58862 2994 ft 131 kts 202°
2026-04-30 21:00 53.56740 9.57425 2999 ft 144 kts 204°
2026-04-30 21:01 53.54955 9.55911 3001 ft 144 kts 204°
2026-04-30 21:01 53.54061 9.55157 2997 ft 144 kts 204°
2026-04-30 21:01 53.52281 9.53651 2993 ft 143 kts 204°
2026-04-30 21:02 53.51395 9.52900 2996 ft 143 kts 204°
2026-04-30 21:02 53.50508 9.52145 2993 ft 143 kts 204°
2026-04-30 21:02 53.49608 9.51441 2993 ft 141 kts 192°
2026-04-30 21:02 53.48732 9.51880 2980 ft 138 kts 129°
2026-04-30 21:03 53.48653 9.53404 2980 ft 142 kts 64°
2026-04-30 21:03 53.49438 9.54403 2989 ft 145 kts 31°
2026-04-30 21:03 53.50312 9.55260 2996 ft 146 kts 34°
2026-04-30 21:03 53.51186 9.56144 3001 ft 147 kts 34°
2026-04-30 21:04 53.52060 9.57031 2998 ft 146 kts 34°
2026-04-30 21:04 53.52923 9.57906 2948 ft 141 kts 34°
2026-04-30 21:04 53.54549 9.59540 2481 ft 121 kts 34°
2026-04-30 21:05 53.55262 9.60242 2485 ft 120 kts 33°
2026-04-30 21:05 53.55995 9.60964 2497 ft 123 kts 36°
2026-04-30 21:05 53.56419 9.62084 2493 ft 116 kts 96°
2026-04-30 21:05 53.55961 9.63135 2504 ft 115 kts 138°
2026-04-30 21:06 53.55391 9.64087 2505 ft 117 kts 133°
2026-04-30 21:06 53.54828 9.65057 2506 ft 118 kts 133°
2026-04-30 21:06 53.54631 9.66336 2502 ft 120 kts 81°
2026-04-30 21:06 53.54789 9.67722 2440 ft 125 kts 84°
2026-04-30 21:07 53.54918 9.69276 2200 ft 139 kts 84°
2026-04-30 21:07 53.55054 9.70874 2106 ft 137 kts 84°
2026-04-30 21:07 53.55187 9.72438 2010 ft 126 kts 84°
2026-04-30 21:07 53.55304 9.73742 1985 ft 103 kts 84°
2026-04-30 21:08 53.55363 9.74864 1990 ft 93 kts 90°
2026-04-30 21:08 53.55497 9.75913 1990 ft 94 kts 67°
2026-04-30 21:08 53.55633 9.76946 1993 ft 90 kts 95°
2026-04-30 21:08 53.55607 9.77999 1998 ft 90 kts 93°
2026-04-30 21:09 53.55593 9.79045 1996 ft 90 kts 93°
2026-04-30 21:09 53.55601 9.80102 1999 ft 91 kts 90°
2026-04-30 21:09 53.55615 9.81170 2001 ft 90 kts 91°
2026-04-30 21:09 53.55627 9.82222 1999 ft 90 kts 92°
2026-04-30 21:10 53.55670 9.83265 1988 ft 91 kts 73°
2026-04-30 21:10 53.55984 9.84205 1946 ft 97 kts 56°
2026-04-30 21:10 53.56368 9.85117 1828 ft 96 kts 60°
2026-04-30 21:10 53.56755 9.85994 1694 ft 92 kts 58°
2026-04-30 21:11 53.57147 9.86842 1570 ft 92 kts 56°
2026-04-30 21:11 53.57550 9.87693 1448 ft 93 kts 56°
2026-04-30 21:11 53.57960 9.88541 1322 ft 93 kts 56°
2026-04-30 21:11 53.58232 9.89113 1235 ft 92 kts 56°
2026-04-30 21:12 53.58637 9.89936 1107 ft 91 kts 54°
2026-04-30 21:12 53.59048 9.90765 989 ft 94 kts 53°
2026-04-30 21:12 53.59468 9.91600 865 ft 92 kts 52°
2026-04-30 21:12 53.59892 9.92409 689 ft 93 kts 49°
2026-04-30 21:13 53.60295 9.93244 569 ft 95 kts 54°
2026-04-30 21:13 53.60701 9.94104 526 ft 96 kts 51°
2026-04-30 21:13 53.61128 9.94948 369 ft 92 kts 51°
2026-04-30 21:13 53.61532 9.95755 224 ft 87 kts 51°
2026-04-30 21:14 53.61930 9.96572 103 ft 91 kts 51°
2026-04-30 21:14 53.62294 9.97312 40 ft 72 kts 50°
2026-04-30 21:14 53.62568 9.97873 35 ft 53 kts 50°
2026-04-30 21:14 53.62766 9.98276 37 ft 22 kts 58°
2026-04-30 21:15 53.62711 9.98400 39 ft 11 kts 140°
2026-04-30 21:15 53.62689 9.98436 40 ft 0 kts 125°
2026-04-30 21:15 53.62674 9.98500 41 ft 14 kts 82°
2026-04-30 21:16 53.62743 9.98657 41 ft 13 kts 46°
2026-04-30 21:16 53.62790 9.98797 41 ft 14 kts 132°
2026-04-30 21:16 53.62766 9.98873 41 ft 0 kts 58°